Location: Brachbach
(49.1847°N, 9.7240°E)
Time: 00:36:55
(UTC+00:00)

FENGYUN 3A - Pass Details

Date: 13 August 2024
Orbit: 822 x 834 km, 98.6° (Epoch: 07 September)

Event Time Altitude Azimuth Distance (km) Brightness Sun altitude
Rises 00:32:11 0° 25° (NNE) 3,394 8.2 -24.6°
Reaches altitude 10° 00:35:07 10° 41° (NE) 2,453 7.0 -24.4°
Maximum altitude 00:39:16 22° 91° (E) 1,756 5.5 -24.2°
Enters shadow 00:41:51 16° 127° (SE) 2,051 5.5 -24.1°
